sat.trackr.live / text

‹ back to catalog

STARLINK-35333

NORAD 66182 · 2025-243F

PAYLOAD ACTIVE UNKNOWN

§ Identity

Operator
Country
US
Launch date
2025-10-26
Launch site
AFETR
Launch vehicle
Mass (kg)
RCS (m²)

Purposes: comms

External: N2YO · Heavens-Above · Gunter

§ Orbital elements

Epoch: 2026-05-24T23:55:28.328160Z

Period
94.10 min
Inclination
53.1583°
Eccentricity
0.0000925
Mean motion
15.30212311 rev/d
Perigee alt
474.5 km
Apogee alt
475.8 km
Semi-major
6,853.3 km
B*
7.7425e-4
RAAN
251.0328°
Arg perigee
258.3862°
Mean anomaly
101.7035°
Rev number
3,233

§ Raw data

STARLINK-353331 66182U 25243F   26144.99685565  .00022650  00000+0  77425-3 0  99912 66182  53.1583 251.0328 0000925 258.3862 101.7035 15.30212311 32338

JSON: /api/v1/satellites/66182 · /tle

For live sub-satellite position, see the globe view (requires WebGL).

§ Visibility from observer

Set your observer location to see the next 7 days of passes ≥ 10°. The values pass through the URL so the page stays shareable.

No JS? Fill the form by hand. The geolocation button needs JavaScript.